Weather Roundup
Issued by NWS

Home | Current Version | Previous Version | Graphics & Text | Print | Product List | Glossary Off
Versions: 1 2 3 4 5 6 7 8 9 10 11 12 13 14 15 16 17 18 19 20 21 22 23 24 25 26 27 28 29 30 31 32 33 34 35 36 37 38 39 40 41 42 43 44 45 46 47 48 49 50

000
NZUS93 KARX 290159
HRRWXR

CURRENT HOURLY OBSERVATIONS ACROSS
MUCH OF THE UPPER MISSISSIPPI VALLEY
NATIONAL WEATHER SERVICE LA CROSSE WI
800 PM CST FRI NOV 28 2014


...SOUTHEAST MINNESOTA...


CITY           SKY/WX    TMP DP  RH WIND       PRES   REMARKS
ROCHESTER      MOCLDY    23  19  85 SE16      29.77F WCI  10
ROCHESTER/MAYO MOCLDY    24  18  79 SE9       29.78F WCI  14
WINONA         CLOUDY    27  23  86 SE5       29.85F WCI  21
AUSTIN         MOCLDY    21  19  93 SE8       29.76F WCI  12
ALBERT LEA     MOCLDY    23  21  93 SE8       29.74F WCI  14
DODGE CENTER   MOCLDY    23  21  93 SE10      29.76F WCI  12
PRESTON        MOCLDY    23  19  86 SE10      29.80F WCI  12
OWATONNA       MOCLDY    25  19  80 SE6       29.77F WCI  18
FARIBAULT      CLOUDY    25  19  80 E3        29.79F
$$

...ELSEWHERE IN MINNESOTA...


CITY           SKY/WX    TMP DP  RH WIND       PRES   REMARKS
MINNEAPOLIS    MOCLDY    23  17  78 SE9       29.81F WCI  13
INTNL FALLS    CLOUDY    16  10  77 SE9       29.74F WCI   4
DULUTH         LGT SNOW  16  11  80 S9        29.79F WCI   4
RED WING       MOCLDY    25  18  74 E6        29.83R WCI  18
REDWOOD FALLS  PTCLDY    21  17  84 E9        29.72F WCI  11
MANKATO        MOCLDY    21  16  79 SE9       29.76F WCI  11
WORTHINGTON    PTCLDY    19  18  93 E5        29.68S WCI  13
FAIRMONT       PTCLDY    19  16  86 SE7       29.71F WCI  10
$$

...SOUTHWEST WISCONSIN...


CITY           SKY/WX    TMP DP  RH WIND       PRES   REMARKS
LA CROSSE      CLOUDY    27  19  72 SE7       29.85F WCI  19
PRAIRIE DU CHI CLOUDY    28  22  77 SE5       29.86F WCI  23
BOSCOBEL       CLOUDY    27  21  78 N3        29.88F
LONE ROCK      NOT AVBL
PLATTEVILLE    CLOUDY    29  26  90 CALM      29.86F
FORT MC COY    MOCLDY    25  20  83 E3        29.87F
VIROQUA        FAIR      24  21  89 SE8       29.83F WCI  15
WIS DELLS      NOT AVBL
$$

...ELSEWHERE IN WISCONSIN...


CITY           SKY/WX    TMP DP  RH WIND       PRES   REMARKS
MILWAUKEE      FLURRIES  32  26  78 S10       29.93S WCI  24
MADISON        CLOUDY    27  23  85 SE6       29.88F WCI  20
GREEN BAY      CLOUDY    26  23  88 CALM      29.92F FOG
EAU CLAIRE     NOT AVBL
BLACK RVR FLS  CLOUDY    25  22  89 SE6       29.84F WCI  18
MEDFORD        CLOUDY    17  14  89 CALM      29.85R
WAUSAU         MOCLDY    18  14  84 E6        29.86S WCI  10
WIS RAPIDS     MOCLDY    22  16  78 SE6       29.88F WCI  14
MARSHFIELD     MOCLDY    21  16  81 E5        29.86S WCI  15
RICE LAKE      PTCLDY    19  14  82 E6        29.84F WCI  11
$$

...NORTHEAST IOWA...


CITY           SKY/WX    TMP DP  RH WIND       PRES   REMARKS
DECORAH        CLOUDY    25  21  86 SE5       29.82S WCI  19
MASON CITY     PTCLDY    24  21  88 SE9       29.77F WCI  14
CHARLES CITY   PTCLDY    27  23  86 SE8       29.81S WCI  18
OELWEIN        MOCLDY    28  25  86 SE12      29.82S WCI  18
$$

...ELSEWHERE IN IOWA...


CITY           SKY/WX    TMP DP  RH WIND       PRES   REMARKS
DES MOINES     PTCLDY    37  30  75 S10       29.72F WCI  30
IOWA CITY      CLEAR     32  29  88 E5        29.83F WCI  27
FORT DODGE     CLEAR     27  21  80 E8        29.72F WCI  18
$$

...NORTHERN ILLINOIS...


CITY           SKY/WX    TMP DP  RH WIND       PRES   REMARKS
CHICAGO-OHARE  CLOUDY    33  28  81 S10       29.93F WCI  25
CHICAGO-MIDWAY CLOUDY    35  27  72 S12       29.94F WCI  27
MOLINE         MOCLDY    34  29  82 SE8       29.83F WCI  27
ROCKFORD       CLOUDY    34  29  82 S9        29.92F WCI  27
PEORIA         PTCLDY    39  30  70 S16G24    29.89F WCI  30
$$

NOTE: "FAIR" INDICATES FEW OR NO CLOUDS BELOW 12,000 FEET WITH NO
SIGNIFICANT WEATHER AND/OR OBSTRUCTIONS TO VISIBILITY. WIND
SPEEDS ARE IN MILES-PER-HOUR.



USA.gov is the U.S. government's official web portal to all federal, state and local government web resources and services.